User: anonymous   Login
Location: Fort Wayne
(41.1310°N, 85.1290°W)
Time: 19:11:17
(UTC-05:00)
Language:

COSMOS 2428 - Orbit

View from above orbital plane
View from above orbital plane
View from above satellite
View from above satellite

Ground track
Ground track

The orbit data is extracted from the following two-line orbital elements,

1 31792U 07029A   16342.82272030 -.00000225  00000-0 -95881-4 0  9996
2 31792  70.9194  93.8945 0009789 222.8618 137.1740 14.12276252487053
Epoch (UTC): 07 December 2016 19:44:43
Eccentricity: 0.0009789
inclination: 70.9194°
perigee height: 844 km
apogee height: 858 km
right ascension of ascending node: 93.8945°
argument of perigee: 222.8618°
revolutions per day: 14.12276252
mean anomaly at epoch: 137.1740°
orbit number at epoch: 48705

The dashed part of the orbit path shows where the satellite is in the earth's shadow,  

DLR